Content
SEND FEEDBACK

Daily
Averages
Monthly
Summary
United States of America

BARTON HILLS, MICHIGAN


Home > North America > United States > Michigan
Elevation: 899 feet     Latitude: 42 18N     Longitude: 083 43W

WEATHER
 
SELECT A DAY
Number of Records: 206,302;   Date Range: 1/1/95 - 9/30/14
 
SHARE

PRINT THIS DATA

[ ← Previous Day ]
WEATHER ALMANAC - MAY 10, 2013
[ Next Day → ]
[ °C ]   °F
Weather ElementAverageHighLow
Temperature59.5 °F70 °F (11:53 am)44.1 °F (9:53 pm)
Dewpoint53.4 °F60.8 °F (8:07 am)39 °F (9:53 pm)
Humidity80.8 %96 % (5:53 am)64 % (12:34 pm)
Barometer29.80 in29.89 in (1:53 am)29.76 in (11:53 am)
Wind Speed10 mph17.3 mph (10:48 am)
Wind Gust23 mph (11:29 am)
Weather ElementAverage
Visibility7.7 mi
Wind DirectionWSW (241.7 °)

Weather ElementTotal
Precipitation0.52 in
Heating Degree Days8 (Base 65)
Growing Degree Days7.1 (Base 50)
Averaged from 42 records on May 10, 2013
WEATHER CONDITIONS BREAKOUT
WIND DIRECTION BREAKOUT
WEATHER BY HOUR - MAY 10, 2013
[ °C ]   °F
Local TimeTemperatureDewpointHumidityBarometerVisibilityWind DirectionWind SpeedGust SpeedPrecipitationEventsConditions
1:53 AM60.1 °F57.0 °F90 %29.89 in10.0 miCalm0.01 inRainLight Rain
2:53 AM60.1 °F57.9 °F93 %29.86 in6.0 miCalm0.01 inOvercast
3:53 AM60.1 °F57.0 °F90 %29.84 in5.0 miSSE (160°)4.6 mph0.04 inRainLight Rain
4:53 AM60.1 °F57.0 °F90 %29.81 in5.0 miSE (140°)3.5 mph0.02 inRainLight Rain
5:23 AM59.0 °F57.2 °F94 %29.81 in2.0 miSE (140°)3.5 mph0.03 inRainLight Rain
5:25 AM59.0 °F57.2 °F94 %29.81 in2.0 miSE (140°)4.6 mph0.04 inRainRain
5:39 AM59.0 °F57.2 °F94 %29.80 in2.0 miSE (130°)4.6 mph0.08 inRainRain
5:48 AM59.0 °F57.2 °F94 %29.79 in1.5 miSE (140°)5.8 mph0.13 inRainHeavy Rain
5:53 AM59.0 °F57.9 °F96 %29.78 in1.8 miSE (130°)6.9 mph0.14 inRainRain
6:01 AM60.8 °F57.2 °F88 %29.79 in2.5 miVariable4.6 mph0.00 inRainLight Rain
6:27 AM60.8 °F57.2 °F88 %29.79 in4.0 miSouth (180°)6.9 mph0.02 inOvercast
7:10 AM60.8 °F59.0 °F94 %29.78 in3.0 miSSW (200°)8.1 mphOvercast
7:53 AM62.1 °F59.0 °F90 %29.78 in4.0 miSSW (200°)9.2 mphOvercast
7:56 AM62.6 °F59.0 °F88 %29.79 in4.0 miSSW (200°)6.9 mphOvercast
8:07 AM62.6 °F60.8 °F94 %29.78 in4.0 miSSW (200°)9.2 mphOvercast
8:53 AM64.0 °F60.1 °F87 %29.78 in8.0 miSW (230°)12.7 mphMostly Cloudy
9:21 AM64.4 °F59.0 °F83 %29.79 in9.0 miSW (230°)10.4 mphOvercast
9:53 AM64.9 °F59.0 °F81 %29.78 in10.0 miWSW (240°)10.4 mph18.4 mphOvercast
10:39 AM68.0 °F60.8 °F78 %29.77 in10.0 miWSW (240°)12.7 mph21.9 mphMostly Cloudy
10:48 AM66.2 °F57.2 °F73 %29.77 in10.0 miSW (230°)17.3 mph21.9 mphMostly Cloudy
10:53 AM66.9 °F57.9 °F73 %29.77 in10.0 miSW (230°)15.0 mph21.9 mphMostly Cloudy
11:29 AM68.0 °F57.2 °F68 %29.77 in10.0 miSW (230°)16.1 mph23.0 mphMostly Cloudy
11:53 AM70.0 °F59.0 °F68 %29.76 in10.0 miSW (230°)15.0 mph21.9 mphMostly Cloudy
12:34 PM69.8 °F57.2 °F64 %29.77 in10.0 miWSW (250°)12.7 mph23.0 mphOvercast
12:41 PM69.8 °F57.2 °F64 %29.77 in10.0 miWSW (240°)15.0 mph19.6 mphOvercast
1:29 PM66.2 °F57.2 °F73 %29.77 in10.0 miNW (310°)9.2 mph23.0 mphOvercast
1:53 PM66.0 °F57.0 °F73 %29.77 in10.0 miNW (320°)10.4 mphMostly Cloudy
2:53 PM66.0 °F55.9 °F70 %29.78 in10.0 miNW (310°)10.4 mphOvercast
3:53 PM62.1 °F53.1 °F72 %29.78 in10.0 miNNW (340°)9.2 mphOvercast
4:37 PM60.8 °F50.0 °F68 %29.78 in10.0 miNorth (360°)13.8 mph21.9 mphMostly Cloudy
4:53 PM57.9 °F48.9 °F72 %29.77 in10.0 miNNW (340°)11.5 mphMostly Cloudy
5:40 PM55.4 °F46.4 °F72 %29.79 in10.0 miNorth (350°)15.0 mphMostly Cloudy
5:53 PM57.0 °F48.0 °F72 %29.79 in10.0 miNNW (340°)12.7 mphMostly Cloudy
6:08 PM53.6 °F44.6 °F72 %29.79 in10.0 miNorth (360°)16.1 mph20.7 mphOvercast
6:22 PM53.6 °F44.6 °F72 %29.79 in10.0 miNorth (350°)13.8 mphOvercast
6:53 PM51.1 °F43.0 °F74 %29.80 in10.0 miNorth (360°)11.5 mph19.6 mphOvercast
7:53 PM48.0 °F42.1 °F80 %29.81 in10.0 miNNW (340°)12.7 mphMostly Cloudy
8:22 PM46.4 °F41.0 °F81 %29.82 in10.0 miNorth (360°)11.5 mph19.6 mphOvercast
8:53 PM46.0 °F39.9 °F79 %29.84 in10.0 miNNW (340°)12.7 mphOvercast
9:53 PM44.1 °F39.0 °F82 %29.86 in10.0 miNorth (360°)13.8 mphOvercast
10:53 PM44.1 °F39.0 °F82 %29.87 in10.0 miNorth (360°)11.5 mphOvercast
11:53 PM44.1 °F39.0 °F82 %29.87 in10.0 miNNW (340°)9.2 mphOvercast
Hourly data recorded from KARB, located miles away from Barton Hills, Michigan







STORIES FROM OUR PARTNERS